Wind_Speed
25 26 26 26 26 25 25 25 25 25 25 25 24 24 23 23 22 22 22 22 22 23 23 22 21 21 22 22 22 22 22 23 22 23 23 24 24 23 23 22 23 23 23
25 25 25 25 25 25 25 25 25 25 24 24 24 23 23 22 22 21 21 21 20 20 21 21 21 20 20 20 20 21 22 22 22 22 22 23 23 23 22 22 21 21 21
24 24 24 24 24 24 24 24 24 24 23 23 23 22 22 21 21 21 21 20 19 19 19 19 19 19 19 19 19 20 20 20 20 21 21 21 21 22 22 22 21 21 21
24 23 23 22 23 23 22 22 21 21 21 20 20 20 20 19 19 19 18 18 18 18 17 17 18 18 18 18 18 18 18 19 19 19 19 19 20 20 21 21 21 20 20
22 21 21 21 21 21 21 20 20 19 19 18 18 18 17 17 17 17 16 16 16 15 15 14 15 15 15 16 17 17 17 18 18 18 18 19 19 19 19 20 20 20 20
20 19 19 19 19 19 18 17 17 17 16 16 16 15 15 14 14 15 14 13 12 12 13 13 13 13 14 14 15 16 16 16 16 17 17 18 18 18 17 18 18 19 19
19 18 17 17 16 16 16 15 14 14 14 14 13 12 12 13 12 11 11 11 12 12 11 10 11 11 12 12 13 14 15 15 15 15 15 15 16 16 16 17 17 17 17
17 16 16 15 14 13 14 13 13 13 13 12 11 10 10 10 9 8 8 8 9 10 9 8 9 9 10 10 10 11 12 13 14 14 13 13 14 15 15 16 16 17 17
16 15 14 13 12 12 12 12 11 11 10 10 10 10 9 8 7 7 6 6 7 6 6 6 7 7 8 8 8 9 10 11 11 12 12 12 12 13 13 14 14 15 15
14 13 12 11 10 10 10 10 9 9 9 9 8 8 7 6 6 5 4 4 5 4 4 5 6 6 5 7 7 8 9 10 10 10 11 11 11 11 12 12 12 12 13
12 11 11 9 8 8 8 8 8 8 8 8 8 7 6 5 4 3 3 3 3 4 4 4 4 4 5 5 6 7 7 8 8 8 9 9 10 11 11 11 11 11 12
10 10 10 9 8 8 7 8 8 7 7 7 7 7 6 5 4 3 3 4 4 4 4 4 4 4 3 4 5 5 6 7 7 8 8 9 9 9 10 10 10 11 11
9 10 9 9 8 7 7 8 8 8 8 8 7 7 7 6 5 4 4 4 5 4 5 4 5 4 4 4 5 5 5 5 6 7 7 8 9 9 10 10 10 11 11
9 9 9 8 8 7 7 8 8 8 8 8 7 7 7 6 6 5 5 5 5 5 5 5 5 5 6 6 6 6 6 6 6 7 7 8 8 9 9 10 10 11 12
9 9 9 9 9 9 9 9 9 8 8 8 8 7 7 7 6 6 6 5 5 5 6 6 6 6 6 6 7 7 7 8 8 8 8 8 9 9 10 10 11 12 13
9 9 10 10 10 10 10 9 9 9 9 8 8 8 8 7 6 6 6 6 6 6 6 6 6 6 6 6 7 7 8 8 8 9 10 10 10 10 11 11 12 13 14
8 9 10 10 11 11 11 10 9 9 9 9 8 8 8 7 7 6 6 7 7 7 7 7 7 7 7 8 7 8 8 8 9 10 11 11 11 12 12 13 14 15 15
8 9 10 10 10 10 10 11 11 10 10 10 9 9 9 8 8 8 8 8 8 8 8 8 8 8 9 8 8 9 10 11 11 12 12 12 13 14 15 16 16 17 17
8 9 10 10 11 11 11 11 11 11 10 10 10 10 10 10 10 10 10 10 10 9 9 9 9 9 10 10 10 11 12 12 13 14 15 15 16 16 17 18 18 19 19
9 10 10 10 11 11 11 11 11 11 11 11 11 11 11 12 12 12 11 10 10 10 10 10 11 11 12 12 13 13 14 15 15 16 16 17 17 18 19 20 20 21 22
9 9 10 10 11 11 12 12 12 12 12 12 13 13 13 13 12 12 12 11 11 11 11 12 13 13 14 15 15 16 17 17 18 19 19 20 20 21 22 22 23 24 25
9 9 10 10 11 11 12 12 12 13 13 14 14 14 14 13 12 12 13 13 13 13 13 13 14 15 16 17 17 18 19 20 21 22 23 24 25 25 26 26 26 27 28
9 10 10 10 11 12 13 13 14 14 15 15 15 15 14 14 14 14 14 14 15 15 15 16 16 17 18 18 19 20 20 21 23 24 25 26 26 27 28 29 29 30 31
9 10 10 11 12 13 13 14 15 15 15 16 16 16 15 15 15 15 15 16 16 17 17 18 19 19 20 21 21 22 23 24 24 26 27 28 29 30 31 31 32 33 33
10 11 12 12 12 13 15 16 16 16 16 16 17 17 17 17 17 17 18 18 19 20 20 20 21 22 22 22 23 24 24 25 27 28 28 29 30 31 32 33 33 34 35
11 12 12 13 13 14 16 17 17 18 18 18 18 19 19 19 19 20 20 21 22 22 22 23 23 24 25 25 26 27 28 28 29 30 31 31 32 33 33 34 34 35 35
Wind_Direction
302 302 301 297 295 293 293 293 293 292 290 290 288 288 287 285 284 283 283 281 279 278 278 274 270 268 264 262 262 260 258 258 258 256 255 255 257 259 259 260 262 263 264
303 303 303 301 299 297 296 295 294 292 291 290 288 286 283 281 281 282 283 282 279 278 276 272 269 268 265 262 260 258 258 258 257 256 255 257 258 258 259 260 262 263 263
304 303 303 301 300 301 300 299 296 294 292 290 289 286 282 280 280 280 280 281 280 279 276 273 269 266 263 261 259 259 259 257 257 258 255 256 258 258 259 260 263 263 264
305 304 303 303 302 302 302 300 298 296 295 293 290 288 286 283 282 281 281 280 282 281 277 272 268 265 262 261 261 260 257 254 255 257 255 256 258 259 260 260 261 261 263
308 307 305 304 304 304 304 302 301 301 300 297 293 289 287 285 282 281 283 283 281 279 275 271 266 264 264 261 260 258 256 253 253 254 255 257 258 258 258 259 259 261 262
311 310 306 306 305 305 306 306 305 305 306 302 296 293 289 286 282 280 280 282 279 278 276 273 270 266 264 261 258 256 254 252 252 253 253 255 254 255 257 259 260 262 262
313 313 311 310 310 310 311 313 313 315 315 312 307 302 297 289 282 280 278 276 276 276 279 276 271 268 263 261 259 253 252 252 252 254 255 254 253 254 257 258 258 259 261
315 316 316 318 317 316 317 318 318 320 321 319 317 314 308 297 289 284 280 278 279 281 278 280 274 264 262 261 260 255 252 252 254 253 253 254 254 254 254 256 257 256 257
317 317 320 322 321 321 322 323 321 322 326 324 319 319 317 310 302 293 283 285 289 286 281 282 283 274 266 258 255 251 248 250 253 254 252 255 257 253 253 255 257 257 256
323 324 326 326 324 326 328 327 327 330 333 333 332 328 324 325 321 310 292 293 297 294 291 288 287 282 273 259 251 248 250 251 250 251 252 255 254 254 256 258 258 256 256
333 336 339 339 339 336 337 338 336 339 346 351 354 353 348 338 330 325 314 307 314 312 305 301 300 284 278 270 259 250 248 255 255 251 251 254 255 256 258 260 261 257 256
345 348 354 356 352 350 351 352 354 353 353 357 4 9 8 6 359 351 340 334 324 313 313 314 312 294 282 271 264 259 256 259 257 254 252 256 259 259 259 259 259 256 256
356 358 1 4 4 2 0 358 0 2 6 9 11 10 9 5 356 350 345 339 333 325 318 313 317 311 295 286 281 276 267 259 259 258 259 261 262 261 260 260 260 259 259
6 8 10 13 15 12 10 11 14 17 16 11 7 3 1 357 349 342 336 330 326 328 324 318 309 301 299 296 289 279 273 270 268 267 268 268 267 264 263 264 265 265 266
21 23 24 23 22 20 17 15 15 14 14 10 5 359 353 349 344 339 340 335 327 322 321 316 311 308 301 300 297 284 278 274 273 274 273 272 269 266 268 269 270 270 271
28 27 26 25 22 20 18 15 12 10 8 8 7 6 3 360 357 348 339 336 334 330 323 318 317 315 307 299 292 290 286 281 277 274 273 271 269 269 272 274 275 276 275
25 24 22 21 21 20 19 15 12 10 7 5 3 1 359 355 351 346 340 333 330 327 323 319 316 312 306 300 295 291 287 282 282 278 274 270 269 271 275 277 278 277 275
19 16 14 14 15 15 14 14 11 8 4 3 1 357 351 344 340 337 333 329 326 323 321 317 311 307 307 302 296 295 289 284 283 283 282 279 277 277 278 279 279 278 277
9 8 9 10 10 9 9 9 9 8 5 1 358 355 350 342 335 329 327 325 322 320 316 310 306 302 300 296 292 290 287 284 282 282 280 279 280 281 280 279 279 278 277
4 2 0 4 4 3 2 2 2 2 0 356 352 348 344 341 339 337 333 329 324 319 314 310 305 301 298 294 292 290 286 283 282 281 281 281 281 281 281 281 280 281 281
358 358 358 358 358 358 358 358 358 358 356 353 349 345 342 339 338 336 334 333 329 321 315 310 306 302 299 298 295 292 290 287 284 281 282 283 284 282 280 280 280 281 283
349 348 349 351 352 353 353 352 351 349 347 344 342 341 341 339 337 334 332 329 326 324 320 315 310 306 302 300 298 295 292 290 287 286 285 284 283 282 282 282 282 283 285
344 346 348 348 349 350 350 349 347 344 343 341 339 338 338 336 333 330 327 324 322 320 318 316 313 309 307 303 298 296 294 292 291 290 289 288 288 287 285 284 284 284 283
344 345 346 344 343 344 344 343 343 342 340 337 335 334 332 330 329 328 327 326 324 321 318 317 314 311 309 307 303 300 298 295 293 292 291 289 289 288 287 286 285 285 285
344 342 340 340 340 340 339 340 340 339 337 334 332 331 329 327 325 324 323 321 320 318 316 315 315 313 310 308 307 304 301 299 297 296 295 294 294 293 291 289 287 286 286
342 340 338 337 336 334 334 335 335 335 334 331 329 328 327 325 323 320 318 317 316 316 316 315 314 312 310 308 305 303 301 299 298 297 297 296 296 295 293 292 291 290 289
Height
5791 5787 5784 5780 5777 5774 5772 5769 5766 5764 5762 5759 5758 5756 5754 5753 5752 5751 5750 5749 5748 5747 5746 5745 5745 5745 5745 5745 5746 5747 5748 5749 5750 5751 5752 5753 5755 5756 5757 5758 5759 5760 5761
5785 5781 5778 5774 5771 5768 5765 5762 5760 5757 5755 5753 5751 5750 5748 5747 5746 5745 5744 5743 5742 5741 5740 5739 5739 5739 5739 5739 5740 5741 5742 5743 5744 5745 5746 5747 5749 5750 5751 5752 5753 5754 5755
5779 5775 5772 5769 5765 5762 5759 5756 5753 5751 5749 5747 5745 5743 5742 5741 5740 5739 5738 5737 5736 5735 5734 5734 5734 5733 5734 5734 5734 5735 5736 5737 5738 5739 5740 5742 5743 5744 5745 5746 5747 5748 5749
5773 5770 5766 5763 5760 5757 5754 5751 5748 5745 5743 5741 5739 5737 5736 5735 5734 5733 5732 5731 5730 5729 5729 5728 5728 5728 5728 5728 5729 5730 5730 5732 5733 5734 5735 5736 5738 5738 5739 5741 5742 5742 5743
5768 5764 5761 5758 5754 5751 5748 5745 5742 5740 5737 5735 5733 5732 5731 5730 5729 5728 5727 5726 5725 5725 5724 5724 5723 5723 5723 5723 5724 5725 5726 5727 5728 5729 5730 5731 5732 5733 5734 5735 5736 5737 5737
5763 5760 5756 5753 5750 5747 5744 5741 5738 5735 5733 5731 5729 5727 5726 5725 5724 5723 5723 5722 5721 5721 5720 5719 5719 5719 5719 5719 5720 5720 5721 5723 5723 5724 5725 5726 5727 5728 5729 5730 5731 5732 5732
5759 5755 5752 5748 5745 5742 5739 5737 5734 5732 5729 5727 5725 5724 5722 5721 5720 5720 5719 5718 5718 5717 5716 5716 5715 5715 5715 5715 5716 5716 5717 5718 5719 5720 5721 5722 5723 5724 5724 5725 5726 5727 5727
5755 5751 5748 5745 5742 5739 5737 5734 5732 5729 5727 5725 5723 5721 5719 5718 5717 5717 5716 5716 5715 5714 5714 5713 5712 5712 5712 5712 5712 5713 5714 5715 5716 5717 5717 5718 5719 5719 5720 5721 5721 5722 5722
5752 5748 5745 5742 5739 5737 5734 5732 5730 5727 5725 5723 5721 5719 5718 5716 5715 5715 5715 5714 5713 5712 5711 5711 5710 5709 5709 5709 5710 5710 5711 5712 5713 5713 5714 5715 5715 5716 5716 5717 5717 5717 5717
5749 5746 5743 5740 5737 5735 5733 5731 5728 5726 5724 5722 5720 5718 5717 5715 5714 5714 5713 5713 5712 5711 5710 5709 5708 5708 5708 5707 5707 5708 5709 5709 5710 5711 5711 5712 5712 5712 5713 5713 5713 5713 5713
5747 5744 5741 5738 5736 5734 5732 5730 5728 5725 5723 5721 5719 5717 5716 5715 5714 5713 5713 5712 5711 5710 5709 5708 5707 5707 5706 5706 5706 5706 5706 5707 5707 5707 5708 5709 5709 5709 5710 5710 5710 5710 5710
5746 5743 5740 5738 5736 5734 5731 5730 5727 5725 5723 5721 5719 5717 5716 5715 5714 5713 5712 5712 5711 5710 5709 5708 5706 5706 5705 5705 5705 5705 5705 5705 5705 5705 5706 5706 5706 5707 5707 5707 5707 5706 5707
5746 5743 5740 5738 5736 5734 5732 5730 5727 5725 5723 5721 5719 5718 5716 5715 5714 5713 5712 5711 5710 5709 5708 5707 5706 5705 5704 5704 5704 5703 5703 5703 5704 5704 5704 5704 5704 5704 5704 5704 5704 5704 5703
5746 5743 5740 5738 5736 5734 5732 5730 5728 5726 5724 5722 5720 5718 5717 5715 5714 5713 5712 5711 5710 5709 5708 5706 5705 5704 5704 5703 5702 5702 5702 5702 5702 5702 5702 5702 5702 5701 5701 5701 5701 5701 5700
5746 5744 5742 5739 5737 5735 5733 5731 5729 5727 5725 5723 5721 5719 5717 5716 5714 5713 5711 5710 5709 5708 5707 5706 5704 5703 5702 5702 5701 5700 5700 5700 5700 5700 5700 5699 5699 5699 5699 5698 5698 5697 5697
5748 5745 5743 5741 5739 5736 5734 5732 5730 5727 5725 5723 5721 5719 5717 5715 5714 5712 5711 5710 5708 5707 5706 5705 5703 5702 5701 5700 5699 5699 5698 5698 5698 5697 5697 5697 5697 5696 5696 5695 5695 5694 5693
5749 5747 5744 5742 5740 5738 5735 5733 5730 5728 5726 5723 5721 5719 5717 5715 5714 5712 5711 5709 5708 5706 5705 5703 5702 5701 5700 5698 5697 5697 5696 5695 5695 5694 5694 5694 5693 5693 5692 5692 5691 5690 5689
5749 5747 5745 5743 5740 5738 5736 5733 5731 5728 5726 5724 5721 5719 5717 5715 5714 5712 5710 5708 5707 5705 5703 5702 5700 5699 5698 5697 5696 5695 5694 5693 5692 5691 5691 5690 5690 5689 5688 5687 5686 5685 5684
5750 5748 5745 5743 5741 5738 5736 5734 5731 5729 5726 5724 5721 5719 5717 5715 5713 5711 5709 5707 5705 5703 5702 5700 5699 5697 5696 5695 5693 5692 5691 5690 5689 5688 5687 5686 5686 5685 5684 5682 5681 5680 5678
5750 5748 5745 5743 5741 5739 5736 5734 5731 5729 5726 5724 5721 5719 5716 5714 5712 5709 5707 5705 5703 5701 5700 5698 5696 5695 5693 5692 5690 5689 5688 5686 5685 5684 5683 5682 5680 5679 5678 5677 5675 5674 5672
5749 5747 5745 5743 5741 5739 5736 5734 5731 5729 5726 5723 5721 5718 5715 5713 5710 5708 5706 5703 5701 5699 5697 5695 5694 5692 5690 5688 5686 5685 5683 5682 5680 5679 5677 5676 5674 5673 5671 5670 5668 5666 5665
5749 5747 5745 5743 5741 5738 5736 5733 5731 5728 5725 5723 5720 5717 5714 5711 5709 5706 5704 5701 5699 5697 5695 5692 5690 5688 5686 5684 5682 5680 5678 5676 5675 5673 5671 5669 5667 5665 5664 5662 5660 5658 5656
5748 5746 5744 5742 5740 5738 5735 5732 5730 5727 5724 5721 5718 5715 5712 5710 5707 5704 5702 5699 5697 5694 5691 5689 5686 5684 5681 5679 5677 5674 5672 5670 5668 5666 5664 5662 5660 5657 5655 5653 5651 5649 5647
5747 5745 5743 5741 5739 5737 5734 5731 5728 5725 5722 5719 5716 5713 5711 5708 5705 5702 5699 5696 5694 5691 5688 5685 5682 5680 5677 5674 5671 5668 5666 5663 5661 5658 5656 5653 5651 5648 5646 5644 5641 5639 5637
5746 5744 5742 5740 5738 5735 5732 5730 5727 5723 5720 5717 5714 5711 5708 5705 5702 5699 5696 5693 5690 5687 5684 5681 5678 5674 5671 5668 5665 5662 5659 5656 5653 5650 5647 5644 5641 5638 5635 5633 5630 5627 5625
5745 5743 5741 5738 5736 5733 5730 5727 5724 5721 5718 5715 5711 5708 5705 5702 5698 5695 5692 5689 5686 5683 5679 5676 5672 5669 5665 5662 5658 5655 5651 5648 5644 5641 5637 5634 5631 5628 5625 5622 5618 5616 5613